Find Starlink 5287

NORAD ID: 55293 Int'l Des: 2023-010 Owner: SPXS Country: US Constellation: starlink operational
LEOCIRCULAR

Live Position

Loading 3D Globe...

About Starlink 5287

Description loading...

Upcoming Passes

Passes for default location (London). Set your location on the main map for personalized predictions.

Altitude History

Loading altitude history...

Two-Line Element Set

1 55293U 23010AA 26133.50002315 -.00008280 00000-0 -68686-3 0 9998
2 55293 70.0014 221.0275 0003513 270.8208 228.2035 14.98333007 5809
Epoch: May 13, 2026 • Age: 9 hours

Current Status

Altitude 594.7 km
Velocity 7.56 km/s
Sub-Earth Point -68.25°S, 74.67°W
Launch Date Jan 19, 2023
Age 3.3 years
Type internet

Technical Details

Classification Payload
Mass 305.00 kg
Dry Mass 290.00 kg
Total Mass 305.00 kg
Length 0.20 m
Diameter 2.80 m
Span 9.00 m
Shape Box + pan
Manufacturer SPXS
Bus Type Starlink
Phase Status In Orbit
Owner/State SPXS/US

Most Searched